Location: Unspecified
(0.0000°N, 0.0000°E)
Time: 22:55:28
(UTC+00:00)

Courier 1B - All Passes

Search period start: 19 November 2019 00:00
Search period end: 29 November 2019 00:00
Orbit: 963 x 1209 km, 28.3° (Epoch: 17 November)

Date Brightness Start Highest point End Pass type
(mag) Time Alt. Az. Time Alt. Az. Time Alt. Az.
19 Nov - 00:22:22 10° SW 00:29:31 38° SSE 00:36:22 10° E night (unlit)
19 Nov - 02:16:21 10° WSW 02:23:58 69° NNW 02:31:08 10° NE visible
19 Nov - 04:13:14 10° WNW 04:18:25 21° NNW 04:23:23 10° NNE visible
19 Nov - 11:56:23 10° NNW 12:01:50 28° NNE 12:07:27 10° E daylight
19 Nov - 13:49:19 10° WNW 13:55:56 80° SSW 14:02:59 10° ESE daylight
19 Nov - 15:45:00 10° WSW 15:50:24 24° SSW 15:56:04 10° SSE daylight
19 Nov - 21:39:08 10° SSE 21:39:46 10° SSE 21:40:25 10° SSE visible
19 Nov - 23:28:49 10° SSW 23:35:24 29° SSE 23:41:50 10° E night (unlit)
20 Nov - 01:22:13 10° WSW 01:30:02 88° SSE 01:37:26 10° ENE night (unlit)
20 Nov - 03:18:09 10° W 03:24:24 28° NNW 03:30:23 10° NNE visible
20 Nov - 11:03:23 10° NNW 11:07:58 20° NNE 11:12:36 10° ENE daylight
20 Nov - 12:55:40 10° NW 13:02:11 74° NNE 13:09:01 10° ESE daylight
20 Nov - 14:50:30 10° W 14:56:24 32° SSW 15:02:37 10° SSE daylight
20 Nov - 16:50:10 10° SSW 16:51:38 11° SSW 16:53:06 10° S daylight
20 Nov - 22:35:26 10° SSW 22:41:13 22° SSE 22:46:57 10° ESE visible
21 Nov - 00:28:15 10° SW 00:36:03 66° SSE 00:43:31 10° ENE night (unlit)
21 Nov - 02:23:23 10° W 02:30:26 39° NNW 02:37:08 10° NE visible
21 Nov - 04:22:47 10° NW 04:25:20 12° NNW 04:27:51 10° N visible
21 Nov - 10:10:40 10° N 10:14:00 14° NNE 10:17:20 10° NE daylight
21 Nov - 12:02:09 10° NW 12:08:25 51° NNE 12:14:54 10° ESE daylight
21 Nov - 13:56:18 10° W 14:02:30 43° SSW 14:09:03 10° SE daylight
21 Nov - 15:54:01 10° SW 15:57:22 14° SSW 16:00:49 10° S daylight
21 Nov - 21:42:16 10° SSW 21:46:58 17° SSE 21:51:39 10° ESE visible
21 Nov - 23:34:28 10° SW 23:42:01 49° SSE 23:49:22 10° ENE night (unlit)
22 Nov - 01:28:54 10° WSW 01:36:28 54° NNW 01:43:42 10° NE night (unlit)
22 Nov - 03:26:37 10° WNW 03:31:09 17° NNW 03:35:34 10° NNE visible
22 Nov - 09:19:13 10° NNE 09:19:56 10° NNE 09:20:39 10° NNE daylight
22 Nov - 11:08:48 10° NW 11:14:39 36° NNE 11:20:37 10° E daylight
22 Nov - 13:02:17 10° WNW 13:08:42 60° SSW 13:15:24 10° SE daylight
22 Nov - 14:58:49 10° WSW 15:03:14 18° SSW 15:07:49 10° SSE daylight
22 Nov - 20:49:34 10° S 20:52:37 12° SSE 20:55:42 10° SE visible
22 Nov - 22:40:50 10° SW 22:47:56 36° SSE 22:54:58 10° E visible
23 Nov - 00:34:37 10° WSW 00:42:29 74° NNW 00:50:04 10° NE night (unlit)
23 Nov - 02:31:13 10° WNW 02:37:03 23° NNW 02:42:40 10° NNE visible
23 Nov - 10:15:34 10° NNW 10:20:51 26° NNE 10:26:07 10° E daylight
23 Nov - 12:08:27 10° WNW 12:14:56 85° SSW 12:21:38 10° ESE daylight
23 Nov - 14:04:02 10° WSW 14:09:13 24° SSW 14:14:35 10° SSE daylight
23 Nov - 21:47:23 10° SSW 21:53:49 27° SSE 22:00:15 10° E visible
23 Nov - 23:40:34 10° WSW 23:48:29 83° SSE 23:56:13 10° ENE night (unlit)
24 Nov - 01:36:14 10° W 01:42:59 32° NNW 01:49:30 10° NNE night (unlit)
24 Nov - 09:22:31 10° NNW 09:26:56 19° NNE 09:31:19 10° ENE daylight
24 Nov - 11:14:47 10° NW 11:21:12 69° NNE 11:27:43 10° ESE daylight
24 Nov - 13:09:35 10° W 13:15:18 32° SSW 13:21:15 10° SE daylight
24 Nov - 15:09:53 10° SSW 15:10:20 10° SSW 15:10:47 10° SSW daylight
24 Nov - 20:54:09 10° SSW 20:59:37 21° SSE 21:05:10 10° ESE visible
24 Nov - 22:46:42 10° SW 22:54:28 62° SSE 23:02:10 10° ENE visible
25 Nov - 00:41:35 10° W 00:48:56 43° NNW 00:56:06 10° NE night (unlit)
25 Nov - 02:40:16 10° NW 02:43:56 14° NNW 02:47:31 10° N night (unlit)
25 Nov - 08:29:44 10° N 08:32:55 14° NNE 08:36:05 10° NE daylight
25 Nov - 10:21:15 10° NW 10:27:28 48° NNE 10:33:41 10° ESE daylight
25 Nov - 12:15:21 10° W 12:21:29 45° SSW 12:27:46 10° SE daylight
25 Nov - 14:13:04 10° SW 14:16:09 13° SSW 14:19:18 10° S daylight
25 Nov - 20:01:13 10° S 20:05:24 15° SSE 20:09:37 10° ESE visible
25 Nov - 21:53:01 10° SW 22:00:25 46° SSE 22:07:52 10° E visible
25 Nov - 23:47:11 10° WSW 23:54:54 59° NNW 00:02:30 10° NE night (unlit)
26 Nov - 01:44:30 10° WNW 01:49:42 19° NNW 01:54:47 10° NNE night (unlit)
26 Nov - 07:38:13 10° NNE 07:38:48 10° NNE 07:39:23 10° NNE daylight
26 Nov - 09:27:49 10° NW 09:33:42 34° NNE 09:39:28 10° E daylight
26 Nov - 11:21:20 10° WNW 11:27:44 64° SSW 11:34:13 10° SE daylight
26 Nov - 13:17:50 10° WSW 13:22:06 18° SSW 13:26:29 10° SSE daylight
26 Nov - 19:09:04 10° S 19:11:05 11° SSE 19:13:07 10° SE visible
26 Nov - 20:59:32 10° SW 21:06:21 34° SSE 21:13:18 10° E visible
26 Nov - 22:53:02 10° WSW 23:00:53 79° NNW 23:08:44 10° NE night (unlit)
27 Nov - 00:49:17 10° W 00:55:32 26° NNW 01:01:41 10° NNE night (unlit)
27 Nov - 08:34:30 10° NNW 08:39:50 25° NNE 08:45:01 10° E daylight
27 Nov - 10:27:28 10° WNW 10:34:01 90° ENE 10:40:31 10° ESE daylight
27 Nov - 12:23:02 10° W 12:28:09 25° SSW 12:33:23 10° SSE daylight
27 Nov - 20:06:14 10° SSW 20:12:15 25° SSE 20:18:25 10° E visible
27 Nov - 21:59:06 10° SW 22:06:52 79° SSE 22:14:45 10° ENE visible
27 Nov - 23:54:27 10° W 00:01:25 34° NNW 00:08:20 10° NE night (unlit)
28 Nov - 01:54:22 10° NW 01:56:44 11° NNW 01:59:04 10° N night (unlit)
28 Nov - 07:41:20 10° NNW 07:45:52 18° NNE 07:50:15 10° ENE daylight
28 Nov - 09:33:43 10° NW 09:40:17 64° NNE 09:46:41 10° ESE daylight
28 Nov - 11:28:32 10° W 11:34:19 34° SSW 11:40:08 10° SE daylight
28 Nov - 19:13:13 10° SSW 19:18:07 19° SSE 19:23:09 10° ESE visible
28 Nov - 21:05:22 10° SW 21:12:51 58° SSE 21:20:33 10° ENE visible
28 Nov - 22:59:56 10° W 23:07:20 46° NNW 23:14:47 10° NE night (unlit)
